| time (UTC) | temp C | wind direction | speed KPH | gust KPH | rain 1hr cm | rain 24hr cm | rain mn cm | humidity % | barometer mb |
| 20260905211531 | 22 | 162 | 4.8 | 12.9 | 0.00 | 0.00 | 0.00 | 39 | 1016.6 |
| 20260905210030 | 21 | 162 | 1.6 | 6.4 | 0.00 | 0.00 | 0.00 | 41 | 1016.7 |
| 20260905204531 | 22 | 162 | 3.2 | 6.4 | 0.00 | 0.00 | 0.00 | 41 | 1016.9 |
| 20260905203028 | 21 | 162 | 0.0 | 4.8 | 0.00 | 0.00 | 0.00 | 44 | 1017.1 |
| 20260905201526 | 21 | 162 | 4.8 | 11.3 | 0.00 | 0.00 | 0.00 | 43 | 1017.2 |
| 20260905200025 | 20 | 162 | 0.0 | 8.0 | 0.00 | 0.00 | 0.00 | 45 | 1017.5 |
| 20260905194522 | 20 | 162 | 3.2 | 6.4 | 0.00 | 0.00 | 0.00 | 51 | 1017.7 |
| 20260905193026 | 19 | 162 | 1.6 | 6.4 | 0.00 | 0.00 | 0.00 | 49 | 1017.8 |
| 20260905191518 | 19 | 162 | 0.0 | 3.2 | 0.00 | 0.00 | 0.00 | 53 | 1018.1 |
| 20260905190014 | 18 | 162 | 1.6 | 9.7 | 0.00 | 0.00 | 0.00 | 55 | 1018.4 |
| 20260905184512 | 17 | 162 | 0.0 | 4.8 | 0.00 | 0.00 | 0.00 | 57 | 1018.5 |
| 20260905183009 | 16 | 162 | 1.6 | 6.4 | 0.00 | 0.00 | 0.00 | 60 | 1018.8 |
| 20260905181505 | 16 | 162 | 0.0 | 3.2 | 0.00 | 0.00 | 0.00 | 61 | 1019.0 |
| 20260905180001 | 15 | 162 | 0.0 | 4.8 | 0.00 | 0.00 | 0.00 | 65 | 1019.1 |
| 20260905174557 | 14 | 162 | 0.0 | 6.4 | 0.00 | 0.00 | 0.00 | 67 | 1019.3 |
| 20260905173056 | 13 | 162 | 0.0 | 3.2 | 0.00 | 0.00 | 0.00 | 71 | 1019.6 |
| 20260905171550 | 11 | 162 | 0.0 | 1.6 | 0.00 | 0.00 | 0.00 | 78 | 1019.7 |
| 20260905170046 | 10 | 162 | 0.0 | 3.2 | 0.00 | 0.00 | 0.00 | 80 | 1019.9 |
| 20260905164545 | 9 | 162 | 0.0 | 0.0 | 0.00 | 0.00 | 0.00 | 82 | 1019.9 |
| 20260905163044 | 9 | 162 | 0.0 | 1.6 | 0.00 | 0.00 | 0.00 | 82 | 1019.8 |
| 20260905161543 | 8 | 162 | 0.0 | 1.6 | 0.00 | 0.00 | 0.00 | 84 | 1019.8 |
| 20260905160109 | 8 | 162 | 0.0 | 1.6 | 0.00 | 0.00 | 0.00 | 85 | 1019.9 |
| 20260905154547 | 8 | 162 | 0.0 | 1.6 | 0.00 | 0.00 | 0.00 | 84 | 1019.9 |
| 20260905153042 | 9 | 162 | 0.0 | 1.6 | 0.00 | 0.00 | 0.00 | 81 | 1020.1 |
| 20260905151539 | 9 | 162 | 0.0 | 0.0 | 0.00 | 0.00 | 0.00 | 84 | 1020.1 |
| 20260905150036 | 8 | 162 | 0.0 | 1.6 | 0.00 | 0.00 | 0.00 | 87 | 1020.3 |
| 20260905144534 | 6 | 162 | 0.0 | 1.6 | 0.00 | 0.03 | 0.00 | 92 | 1020.3 |
| 20260905143034 | 6 | 162 | 0.0 | 0.0 | 0.00 | 0.03 | 0.00 | 95 | 1020.2 |
| 20260905141537 | 5 | 161 | 0.0 | 0.0 | 0.00 | 0.03 | 0.00 | 96 | 1020.0 |
| 20260905140031 | 4 | 162 | 0.0 | 0.0 | 0.00 | 0.03 | 0.00 | 96 | 1019.8 |
| 20260905134530 | 3 | 162 | 0.0 | 0.0 | 0.00 | 0.03 | 0.00 | 96 | 1019.6 |
| 20260905133028 | 3 | 162 | 0.0 | 0.0 | 0.00 | 0.03 | 0.00 | 96 | 1019.6 |
| 20260905131526 | 2 | 161 | 0.0 | 0.0 | 0.00 | 0.03 | 0.00 | 96 | 1019.4 |
| 20260905130024 | 2 | 162 | 0.0 | 0.0 | 0.00 | 0.03 | 0.00 | 95 | 1019.0 |
| 20260905124528 | 2 | 162 | 0.0 | 0.0 | 0.00 | 0.03 | 0.00 | 95 | 1018.9 |
| 20260905123019 | 2 | 162 | 0.0 | 0.0 | 0.00 | 0.03 | 0.00 | 95 | 1018.7 |
| 20260905121517 | 2 | 162 | 0.0 | 0.0 | 0.00 | 0.03 | 0.00 | 94 | 1018.5 |
| 20260905120015 | 2 | 162 | 0.0 | 0.0 | 0.00 | 0.03 | 0.00 | 94 | 1018.4 |
| 20260905114514 | 3 | 162 | 0.0 | 0.0 | 0.00 | 0.03 | 0.00 | 93 | 1018.4 |
| 20260905113012 | 3 | 162 | 0.0 | 0.0 | 0.00 | 0.03 | 0.00 | 95 | 1018.1 |
| 20260905111510 | 3 | 162 | 0.0 | 0.0 | 0.00 | 0.03 | 0.00 | 94 | 1018.2 |
| 20260905110010 | 3 | 162 | 0.0 | 0.0 | 0.00 | 0.03 | 0.00 | 94 | 1018.0 |
| 20260905104508 | 3 | 162 | 0.0 | 0.0 | 0.00 | 0.05 | 0.00 | 95 | 1018.0 |
| 20260905103017 | 3 | 162 | 0.0 | 0.0 | 0.00 | 0.05 | 0.00 | 94 | 1018.0 |
| 20260905101505 | 3 | 162 | 0.0 | 0.0 | 0.00 | 0.05 | 0.00 | 93 | 1017.9 |
| 20260905100002 | 4 | 162 | 0.0 | 0.0 | 0.00 | 0.05 | 0.00 | 93 | 1017.8 |
| 20260905094504 | 5 | 161 | 0.0 | 0.0 | 0.00 | 0.36 | 0.00 | 94 | 1017.9 |
| 20260905093100 | 5 | 161 | 0.0 | 0.0 | 0.00 | 0.36 | 0.00 | 94 | 1017.9 |
| 20260905091621 | 4 | 162 | 0.0 | 3.2 | 0.00 | 0.36 | 0.00 | 93 | 1017.8 |
| 20260905090118 | 4 | 162 | 0.0 | 1.6 | 0.00 | 0.36 | 0.00 | 92 | 1017.6 |
| 20260905084606 | 5 | 162 | 0.0 | 1.6 | 0.00 | 0.36 | 0.00 | 94 | 1017.6 |
| 20260905083052 | 5 | 162 | 0.0 | 0.0 | 0.00 | 0.36 | 0.00 | 93 | 1017.4 |
| 20260905081552 | 5 | 162 | 0.0 | 0.0 | 0.00 | 0.36 | 0.00 | 91 | 1017.2 |
| 20260905080053 | 6 | 162 | 0.0 | 3.2 | 0.00 | 0.36 | 0.00 | 89 | 1017.2 |
| 20260905074545 | 6 | 162 | 0.0 | 3.2 | 0.00 | 0.38 | 0.00 | 90 | 1017.4 |
| 20260905073051 | 6 | 162 | 0.0 | 1.6 | 0.00 | 0.38 | 0.00 | 92 | 1017.6 |
| 20260905071545 | 6 | 162 | 0.0 | 1.6 | 0.00 | 0.38 | 0.00 | 89 | 1017.2 |
| 20260905070041 | 6 | 162 | 0.0 | 3.2 | 0.00 | 0.38 | 0.00 | 92 | 1016.9 |
| 20260905064541 | 6 | 162 | 0.0 | 0.0 | 0.00 | 0.38 | 0.00 | 89 | 1016.7 |
| 20260905063035 | 7 | 162 | 0.0 | 1.6 | 0.00 | 0.38 | 0.00 | 89 | 1016.8 |
| 20260905061536 | 7 | 162 | 0.0 | 0.0 | 0.00 | 0.38 | 0.00 | 88 | 1016.7 |
| 20260905060028 | 8 | 162 | 0.0 | 0.0 | 0.00 | 0.38 | 0.00 | 88 | 1016.7 |
| 20260905054526 | 8 | 162 | 0.0 | 1.6 | 0.00 | 0.38 | 0.38 | 88 | 1016.7 |
| 20260905053026 | 9 | 161 | 0.0 | 0.0 | 0.00 | 0.38 | 0.38 | 85 | 1016.8 |
| 20260905051534 | 10 | 161 | 0.0 | 0.0 | 0.00 | 0.38 | 0.38 | 81 | 1016.7 |
| 20260905050029 | 10 | 162 | 0.0 | 1.6 | 0.00 | 0.38 | 0.38 | 85 | 1016.8 |
| 20260905044532 | 10 | 162 | 0.0 | 1.6 | 0.00 | 0.38 | 0.38 | 83 | 1016.7 |
| 20260905043027 | 10 | 162 | 0.0 | 1.6 | 0.00 | 0.38 | 0.38 | 81 | 1016.5 |
| 20260905041522 | 11 | 161 | 0.0 | 3.2 | 0.00 | 0.38 | 0.38 | 75 | 1016.5 |
| 20260905040021 | 12 | 162 | 3.2 | 4.8 | 0.00 | 0.38 | 0.38 | 72 | 1016.3 |
| 20260905034521 | 12 | 161 | 0.0 | 0.0 | 0.00 | 0.38 | 0.38 | 77 | 1016.5 |
| 20260905033029 | 13 | 162 | 0.0 | 4.8 | 0.00 | 0.38 | 0.38 | 68 | 1016.3 |
| 20260905031517 | 12 | 162 | 0.0 | 3.2 | 0.00 | 0.38 | 0.38 | 73 | 1016.1 |
| 20260905030031 | 13 | 162 | 0.0 | 1.6 | 0.00 | 0.38 | 0.38 | 73 | 1016.0 |
| 20260905024518 | 13 | 162 | 0.0 | 3.2 | 0.00 | 0.38 | 0.38 | 69 | 1015.8 |
| 20260905023014 | 13 | 161 | 0.0 | 0.0 | 0.00 | 0.38 | 0.38 | 71 | 1015.6 |
| 20260905021511 | 15 | 162 | 0.0 | 1.6 | 0.00 | 0.38 | 0.38 | 63 | 1015.4 |
| 20260905020011 | 15 | 162 | 0.0 | 1.6 | 0.00 | 0.38 | 0.38 | 64 | 1015.4 |
| 20260905014510 | 16 | 162 | 0.0 | 1.6 | 0.00 | 0.38 | 0.38 | 57 | 1015.3 |
| 20260905013012 | 16 | 162 | 0.0 | 4.8 | 0.00 | 0.38 | 0.38 | 55 | 1015.2 |
| 20260905011508 | 18 | 162 | 0.0 | 1.6 | 0.00 | 0.38 | 0.38 | 50 | 1014.9 |
| 20260905010008 | 17 | 162 | 0.0 | 3.2 | 0.00 | 0.38 | 0.38 | 52 | 1014.9 |
| 20260905004506 | 16 | 162 | 0.0 | 3.2 | 0.00 | 0.38 | 0.38 | 54 | 1014.9 |
| 20260905003006 | 17 | 162 | 0.0 | 1.6 | 0.00 | 0.38 | 0.38 | 53 | 1015.1 |
| 20260905001516 | 17 | 162 | 0.0 | 6.4 | 0.00 | 0.38 | 0.38 | 52 | 1015.2 |
| 20260905000005 | 18 | 162 | 1.6 | 9.7 | 0.00 | 0.38 | 0.38 | 51 | 1014.8 |
| 20260904234505 | 17 | 161 | 0.0 | 4.8 | 0.00 | 0.38 | 0.38 | 58 | 1014.9 |
| 20260904233007 | 17 | 162 | 1.6 | 6.4 | 0.00 | 0.38 | 0.38 | 54 | 1014.8 |
| 20260904231503 | 17 | 161 | 0.0 | 8.0 | 0.00 | 0.38 | 0.38 | 53 | 1015.0 |
| 20260904230112 | 18 | 162 | 1.6 | 6.4 | 0.00 | 0.38 | 0.38 | 54 | 1014.9 |
| 20260904224601 | 16 | 162 | 1.6 | 4.8 | 0.00 | 0.38 | 0.38 | 56 | 1015.0 |
| 20260904223130 | 16 | 161 | 0.0 | 3.2 | 0.00 | 0.38 | 0.38 | 57 | 1015.1 |
| 20260904221559 | 16 | 162 | 1.6 | 3.2 | 0.00 | 0.38 | 0.38 | 59 | 1015.0 |
| 20260904220056 | 16 | 162 | 0.0 | 3.2 | 0.00 | 0.38 | 0.38 | 63 | 1015.0 |
| 20260904214602 | 16 | 161 | 4.8 | 8.0 | 0.00 | 0.38 | 0.38 | 57 | 1015.1 |
| 20260904213055 | 16 | 162 | 0.0 | 4.8 | 0.00 | 0.38 | 0.38 | 58 | 1015.1 |